Time,TemperatureF,DewpointF,PressureIn,WindDirection,WindDirectionDegrees,WindSpeedMPH,WindSpeedGustMPH,Humidity,HourlyPrecipIn,Conditions,Clouds,dailyrainin,SoftwareType,DateUTC
2013-01-09 00:00:00,29.0,27.2,30.25,NNW,338,0.0,0.0,93,0.00,,BKN055,0.00,VWS V14.00,2013-01-09 05:00:00,
2013-01-09 00:10:00,28.8,27.3,30.26,NNW,338,0.0,0.0,94,0.00,,BKN055,0.00,VWS V14.00,2013-01-09 05:10:00,
2013-01-09 00:20:00,28.9,27.1,30.25,NNW,338,1.0,3.0,93,0.00,,BKN055,0.00,VWS V14.00,2013-01-09 05:20:00,
2013-01-09 00:30:00,28.8,27.0,30.25,NNW,338,1.0,2.0,93,0.00,,BKN055,0.00,VWS V14.00,2013-01-09 05:30:00,
2013-01-09 00:40:00,28.6,27.1,30.24,NNW,338,1.0,3.0,94,0.00,,BKN055,0.00,VWS V14.00,2013-01-09 05:40:00,
2013-01-09 00:50:00,28.9,27.4,30.25,NNW,338,1.0,3.0,94,0.00,,BKN055,0.00,VWS V14.00,2013-01-09 05:50:00,
2013-01-09 01:00:00,29.3,27.8,30.25,NNW,338,2.0,4.0,94,0.00,,BKN055,0.00,VWS V14.00,2013-01-09 06:00:00,
2013-01-09 01:10:00,29.6,28.1,30.25,NNW,338,2.0,3.0,94,0.00,,BKN055,0.00,VWS V14.00,2013-01-09 06:10:00,
2013-01-09 01:20:00,29.9,28.4,30.24,NNW,338,0.0,0.0,94,0.00,,BKN055,0.00,VWS V14.00,2013-01-09 06:20:00,
2013-01-09 01:30:00,30.1,28.6,30.25,NNW,338,0.0,0.0,94,0.00,,BKN055,0.00,VWS V14.00,2013-01-09 06:30:00,
2013-01-09 01:40:00,30.2,28.7,30.25,NNW,338,0.0,0.0,94,0.00,,BKN055,0.00,VWS V14.00,2013-01-09 06:40:00,
2013-01-09 01:50:00,30.4,28.9,30.25,NNW,338,0.0,0.0,94,0.00,,BKN055,0.00,VWS V14.00,2013-01-09 06:50:00,
2013-01-09 02:00:00,30.6,29.1,30.25,NNW,338,0.0,0.0,94,0.00,,BKN055,0.00,VWS V14.00,2013-01-09 07:00:00,
2013-01-09 02:10:00,30.7,29.2,30.25,NNW,338,0.0,0.0,94,0.00,,BKN055,0.00,VWS V14.00,2013-01-09 07:10:00,
2013-01-09 02:20:00,30.9,29.4,30.26,NNW,338,0.0,0.0,94,0.00,,BKN055,0.00,VWS V14.00,2013-01-09 07:20:00,
2013-01-09 02:30:00,31.1,29.6,30.26,NNW,338,0.0,0.0,94,0.00,,BKN055,0.00,VWS V14.00,2013-01-09 07:30:00,
2013-01-09 02:40:00,31.2,29.7,30.25,NNW,338,0.0,0.0,94,0.00,,BKN055,0.00,VWS V14.00,2013-01-09 07:40:00,
2013-01-09 02:50:00,31.3,29.5,30.26,NNW,338,0.0,0.0,93,0.00,,BKN055,0.00,VWS V14.00,2013-01-09 07:50:00,
2013-01-09 03:00:00,31.4,29.6,30.26,NNW,338,0.0,0.0,93,0.00,,BKN055,0.00,VWS V14.00,2013-01-09 08:00:00,
2013-01-09 03:10:00,31.6,29.8,30.26,NNW,338,0.0,0.0,93,0.00,,BKN055,0.00,VWS V14.00,2013-01-09 08:10:00,
2013-01-09 03:20:00,31.8,30.0,30.26,NNW,338,0.0,2.0,93,0.00,,BKN055,0.00,VWS V14.00,2013-01-09 08:20:00,
2013-01-09 03:30:00,32.0,30.2,30.26,NNW,338,0.0,0.0,93,0.00,,BKN055,0.00,VWS V14.00,2013-01-09 08:30:00,
2013-01-09 03:40:00,32.2,30.4,30.26,NNW,338,0.0,0.0,93,0.00,,BKN055,0.00,VWS V14.00,2013-01-09 08:40:00,
2013-01-09 03:50:00,32.3,30.5,30.25,NNW,338,0.0,0.0,93,0.00,,BKN055,0.00,VWS V14.00,2013-01-09 08:50:00,
2013-01-09 04:00:00,32.5,31.0,30.26,NNW,338,0.0,0.0,94,0.00,,BKN055,0.00,VWS V14.00,2013-01-09 09:00:00,
2013-01-09 04:10:00,32.5,30.7,30.26,NNW,338,0.0,0.0,93,0.00,,BKN055,0.00,VWS V14.00,2013-01-09 09:10:00,
2013-01-09 04:20:00,32.8,31.3,30.25,NNW,338,0.0,0.0,94,0.00,,BKN055,0.00,VWS V14.00,2013-01-09 09:20:00,
2013-01-09 04:30:00,33.0,31.5,30.25,NNW,338,0.0,0.0,94,0.00,,BKN055,0.00,VWS V14.00,2013-01-09 09:30:00,
2013-01-09 04:40:00,33.3,31.8,30.25,NNW,338,0.0,0.0,94,0.00,,BKN055,0.00,VWS V14.00,2013-01-09 09:40:00,
2013-01-09 04:50:00,33.4,31.9,30.26,NNW,338,0.0,0.0,94,0.00,,BKN055,0.00,VWS V14.00,2013-01-09 09:50:00,
2013-01-09 05:00:00,33.5,31.7,30.25,NNW,338,0.0,0.0,93,0.00,,BKN055,0.00,VWS V14.00,2013-01-09 10:00:00,
2013-01-09 05:10:00,33.8,32.0,30.25,NNW,338,0.0,0.0,93,0.00,,BKN055,0.00,VWS V14.00,2013-01-09 10:10:00,
2013-01-09 05:20:00,34.1,32.3,30.25,NNW,338,0.0,0.0,93,0.00,,BKN055,0.00,VWS V14.00,2013-01-09 10:20:00,
2013-01-09 05:30:00,34.5,33.0,30.25,NNW,338,0.0,0.0,94,0.00,,BKN055,0.00,VWS V14.00,2013-01-09 10:30:00,
2013-01-09 05:40:00,35.3,34.0,30.25,NNW,338,0.0,0.0,95,0.00,,BKN055,0.00,VWS V14.00,2013-01-09 10:40:00,
2013-01-09 05:50:00,35.2,33.7,30.26,NNW,338,0.0,3.0,94,0.00,,BKN055,0.00,VWS V14.00,2013-01-09 10:50:00,
2013-01-09 06:00:00,35.1,33.3,30.26,NNW,338,0.0,1.0,93,0.00,,BKN055,0.00,VWS V14.00,2013-01-09 11:00:00,
2013-01-09 06:10:00,35.3,33.5,30.27,NNW,338,0.0,2.0,93,0.00,,BKN055,0.00,VWS V14.00,2013-01-09 11:10:00,
2013-01-09 06:20:00,35.5,33.7,30.28,NNW,338,0.0,3.0,93,0.00,,BKN055,0.00,VWS V14.00,2013-01-09 11:20:00,
2013-01-09 06:30:00,35.8,33.7,30.29,NNW,338,0.0,0.0,92,0.00,,BKN055,0.00,VWS V14.00,2013-01-09 11:30:00,
2013-01-09 06:40:00,36.2,34.4,30.29,NNW,338,0.0,0.0,93,0.00,,BKN055,0.00,VWS V14.00,2013-01-09 11:40:00,
2013-01-09 06:50:00,36.6,35.0,30.30,NNW,338,0.0,0.0,94,0.00,,BKN055,0.00,VWS V14.00,2013-01-09 11:50:00,
2013-01-09 07:00:00,37.7,36.4,30.30,WSW,248,0.0,3.0,95,0.00,,BKN055,0.00,VWS V14.00,2013-01-09 12:00:00,
2013-01-09 07:10:00,38.0,36.2,30.31,WSW,248,0.0,0.0,93,0.00,,BKN055,0.00,VWS V14.00,2013-01-09 12:10:00,
2013-01-09 07:20:00,37.9,36.3,30.32,WNW,292,0.0,3.0,94,0.01,,BKN055,0.01,VWS V14.00,2013-01-09 12:20:00,
2013-01-09 07:30:00,38.6,37.3,30.33,South,180,0.0,3.0,95,0.02,,BKN055,0.02,VWS V14.00,2013-01-09 12:30:00,
2013-01-09 07:40:00,39.0,37.7,30.32,SSE,158,1.0,3.0,95,0.02,,BKN055,0.02,VWS V14.00,2013-01-09 12:40:00,
2013-01-09 07:50:00,39.4,38.4,30.32,SSE,158,0.0,0.0,96,0.02,,BKN055,0.02,VWS V14.00,2013-01-09 12:50:00,
2013-01-09 08:00:00,39.9,38.8,30.33,South,180,0.0,2.0,96,0.02,,BKN055,0.02,VWS V14.00,2013-01-09 13:00:00,
2013-01-09 08:10:00,40.7,39.9,30.32,South,180,0.0,3.0,97,0.02,,BKN055,0.02,VWS V14.00,2013-01-09 13:10:00,
2013-01-09 08:20:00,41.2,40.4,30.33,South,180,0.0,2.0,97,0.02,,BKN055,0.02,VWS V14.00,2013-01-09 13:20:00,
2013-01-09 08:30:00,41.2,40.2,30.34,South,180,0.0,2.0,96,0.01,,BKN055,0.02,VWS V14.00,2013-01-09 13:30:00,
2013-01-09 08:40:00,41.0,40.0,30.34,South,180,0.0,0.0,96,0.00,,BKN055,0.02,VWS V14.00,2013-01-09 13:40:00,
2013-01-09 08:50:00,41.2,40.4,30.34,South,180,0.0,0.0,97,0.00,,BKN055,0.02,VWS V14.00,2013-01-09 13:50:00,
2013-01-09 09:00:00,41.4,40.6,30.34,South,180,0.0,0.0,97,0.00,,BKN055,0.02,VWS V14.00,2013-01-09 14:00:00,
2013-01-09 09:10:00,41.5,40.7,30.35,South,180,0.0,0.0,97,0.00,,BKN055,0.02,VWS V14.00,2013-01-09 14:10:00,
2013-01-09 09:20:00,41.8,41.0,30.36,South,180,0.0,0.0,97,0.01,,BKN055,0.03,VWS V14.00,2013-01-09 14:20:00,
2013-01-09 09:30:00,42.4,41.6,30.36,South,180,0.0,0.0,97,0.01,,BKN055,0.03,VWS V14.00,2013-01-09 14:30:00,
2013-01-09 09:40:00,42.6,41.8,30.37,South,180,0.0,0.0,97,0.02,,BKN055,0.04,VWS V14.00,2013-01-09 14:40:00,
2013-01-09 09:50:00,42.2,41.4,30.36,South,180,0.0,2.0,97,0.02,,BKN055,0.04,VWS V14.00,2013-01-09 14:50:00,
2013-01-09 10:00:00,42.4,41.6,30.37,SSW,202,0.0,2.0,97,0.03,,BKN055,0.05,VWS V14.00,2013-01-09 15:00:00,
2013-01-09 10:10:00,43.2,42.7,30.37,SSW,202,0.0,2.0,98,0.03,,BKN055,0.05,VWS V14.00,2013-01-09 15:10:00,
2013-01-09 10:20:00,42.9,42.1,30.37,SSW,202,0.0,0.0,97,0.03,,BKN055,0.05,VWS V14.00,2013-01-09 15:20:00,
2013-01-09 10:30:00,43.5,43.0,30.37,SSW,202,0.0,0.0,98,0.02,,BKN055,0.05,VWS V14.00,2013-01-09 15:30:00,
2013-01-09 10:40:00,44.2,43.7,30.38,SW,225,0.0,3.0,98,0.02,,BKN055,0.05,VWS V14.00,2013-01-09 15:40:00,
2013-01-09 10:50:00,44.6,44.1,30.37,SSW,202,0.0,3.0,98,0.01,,BKN055,0.05,VWS V14.00,2013-01-09 15:50:00,
2013-01-09 11:00:00,45.1,44.6,30.38,SW,225,2.0,5.0,98,0.01,,BKN055,0.05,VWS V14.00,2013-01-09 16:00:00,
2013-01-09 11:10:00,45.7,45.2,30.38,WSW,248,1.0,4.0,98,0.00,,BKN055,0.05,VWS V14.00,2013-01-09 16:10:00,
2013-01-09 11:20:00,46.2,45.7,30.39,WSW,248,1.0,3.0,98,0.00,,BKN055,0.05,VWS V14.00,2013-01-09 16:20:00,
2013-01-09 11:30:00,46.0,45.2,30.38,SSW,202,0.0,2.0,97,0.00,,BKN055,0.05,VWS V14.00,2013-01-09 16:30:00,
2013-01-09 11:40:00,46.7,45.9,30.38,SW,225,1.0,4.0,97,0.00,,BKN055,0.05,VWS V14.00,2013-01-09 16:40:00,
2013-01-09 11:50:00,48.0,47.5,30.37,SW,225,0.0,3.0,98,0.00,,BKN055,0.05,VWS V14.00,2013-01-09 16:50:00,
2013-01-09 12:00:00,49.2,48.7,30.37,SW,225,1.0,5.0,98,0.00,,BKN055,0.05,VWS V14.00,2013-01-09 17:00:00,
2013-01-09 12:10:00,48.9,47.2,30.36,SW,225,0.0,3.0,94,0.00,,BKN055,0.05,VWS V14.00,2013-01-09 17:10:00,
2013-01-09 12:20:00,49.2,47.5,30.36,SSW,202,1.0,4.0,94,0.00,,BKN055,0.05,VWS V14.00,2013-01-09 17:20:00,
2013-01-09 12:30:00,49.6,47.7,30.35,SW,225,0.0,3.0,93,0.00,,BKN055,0.05,VWS V14.00,2013-01-09 17:30:00,
2013-01-09 12:40:00,50.5,48.3,30.36,WSW,248,1.0,6.0,92,0.00,,BKN055,0.05,VWS V14.00,2013-01-09 17:40:00,
2013-01-09 12:50:00,50.6,47.5,30.35,WSW,248,3.0,6.0,89,0.00,,BKN055,0.05,VWS V14.00,2013-01-09 17:50:00,
2013-01-09 13:00:00,50.9,47.8,30.35,SW,225,2.0,9.0,89,0.00,,BKN055,0.05,VWS V14.00,2013-01-09 18:00:00,
2013-01-09 13:10:00,51.2,47.8,30.34,SW,225,2.0,7.0,88,0.00,,BKN055,0.05,VWS V14.00,2013-01-09 18:10:00,
2013-01-09 13:20:00,51.1,47.4,30.34,SSW,202,0.0,3.0,87,0.00,,BKN055,0.05,VWS V14.00,2013-01-09 18:20:00,
2013-01-09 13:30:00,51.7,48.0,30.34,South,180,1.0,5.0,87,0.00,,BKN055,0.05,VWS V14.00,2013-01-09 18:30:00,
2013-01-09 13:40:00,52.4,48.0,30.34,SSW,202,1.0,5.0,85,0.00,,BKN055,0.05,VWS V14.00,2013-01-09 18:40:00,
2013-01-09 13:50:00,52.5,48.1,30.34,WSW,248,1.0,6.0,85,0.00,,BKN055,0.05,VWS V14.00,2013-01-09 18:50:00,
2013-01-09 14:00:00,53.0,48.3,30.33,SSW,202,1.0,6.0,84,0.00,,BKN055,0.05,VWS V14.00,2013-01-09 19:00:00,
2013-01-09 14:10:00,53.6,48.2,30.33,SW,225,0.0,6.0,82,0.00,,BKN055,0.05,VWS V14.00,2013-01-09 19:10:00,
2013-01-09 14:20:00,53.4,47.7,30.34,SW,225,2.0,5.0,81,0.00,,BKN055,0.05,VWS V14.00,2013-01-09 19:20:00,
2013-01-09 14:30:00,53.9,48.2,30.34,SW,225,1.0,5.0,81,0.00,,BKN055,0.05,VWS V14.00,2013-01-09 19:30:00,
2013-01-09 14:40:00,54.1,48.1,30.35,SW,225,1.0,4.0,80,0.00,,BKN055,0.05,VWS V14.00,2013-01-09 19:40:00,
2013-01-09 14:50:00,55.2,48.8,30.35,West,270,2.0,6.0,79,0.00,,BKN055,0.05,VWS V14.00,2013-01-09 19:50:00,
2013-01-09 15:00:00,55.9,48.1,30.36,West,270,3.0,10.0,75,0.00,,BKN055,0.05,VWS V14.00,2013-01-09 20:00:00,
2013-01-09 15:10:00,55.9,48.1,30.36,West,270,3.0,10.0,75,0.00,,BKN055,0.05,VWS V14.00,2013-01-09 20:10:00,
2013-01-09 15:20:00,55.9,47.7,30.37,NW,315,2.0,7.0,74,0.00,,BKN055,0.05,VWS V14.00,2013-01-09 20:20:00,
2013-01-09 15:30:00,55.7,46.1,30.38,WNW,292,3.0,10.0,70,0.00,,BKN055,0.05,VWS V14.00,2013-01-09 20:30:00,
2013-01-09 15:40:00,55.5,45.5,30.37,NW,315,3.0,10.0,69,0.00,,BKN055,0.05,VWS V14.00,2013-01-09 20:40:00,
2013-01-09 15:50:00,55.6,45.2,30.37,West,270,2.0,7.0,68,0.00,,BKN055,0.05,VWS V14.00,2013-01-09 20:50:00,
2013-01-09 16:00:00,55.3,44.2,30.38,West,270,3.0,9.0,66,0.00,,BKN055,0.05,VWS V14.00,2013-01-09 21:00:00,
2013-01-09 16:10:00,55.1,44.3,30.38,West,270,3.0,7.0,67,0.00,,BKN055,0.05,VWS V14.00,2013-01-09 21:10:00,
2013-01-09 16:20:00,54.7,44.0,30.38,WSW,248,0.0,2.0,67,0.00,,BKN055,0.05,VWS V14.00,2013-01-09 21:20:00,
2013-01-09 16:30:00,54.3,44.4,30.39,WNW,292,0.0,3.0,69,0.00,,BKN055,0.05,VWS V14.00,2013-01-09 21:30:00,
2013-01-09 16:40:00,53.4,44.2,30.40,WNW,292,0.0,1.0,71,0.00,,BKN055,0.05,VWS V14.00,2013-01-09 21:40:00,
2013-01-09 16:50:00,52.1,44.4,30.40,WNW,292,0.0,0.0,75,0.00,,BKN055,0.05,VWS V14.00,2013-01-09 21:50:00,
2013-01-09 17:00:00,50.8,43.9,30.40,WNW,292,0.0,2.0,77,0.00,,BKN055,0.05,VWS V14.00,2013-01-09 22:00:00,
2013-01-09 17:10:00,49.4,43.5,30.40,WNW,292,0.0,0.0,80,0.00,,BKN055,0.05,VWS V14.00,2013-01-09 22:10:00,
2013-01-09 17:20:00,48.3,42.8,30.40,WNW,292,0.0,0.0,81,0.00,,BKN055,0.05,VWS V14.00,2013-01-09 22:20:00,
2013-01-09 17:30:00,47.2,42.3,30.40,WNW,292,0.0,0.0,83,0.00,,BKN055,0.05,VWS V14.00,2013-01-09 22:30:00,
2013-01-09 17:40:00,46.1,41.8,30.41,WNW,292,0.0,0.0,85,0.00,,BKN055,0.05,VWS V14.00,2013-01-09 22:40:00,
2013-01-09 17:50:00,45.1,41.2,30.41,WNW,292,0.0,0.0,86,0.00,,BKN055,0.05,VWS V14.00,2013-01-09 22:50:00,
2013-01-09 18:00:00,43.9,40.3,30.42,WNW,292,0.0,1.0,87,0.00,,BKN055,0.05,VWS V14.00,2013-01-09 23:00:00,
2013-01-09 18:10:00,42.9,40.2,30.42,WNW,292,0.0,0.0,90,0.00,,BKN055,0.05,VWS V14.00,2013-01-09 23:10:00,
2013-01-09 18:20:00,42.9,40.5,30.42,WNW,292,0.0,0.0,91,0.00,,BKN055,0.05,VWS V14.00,2013-01-09 23:20:00,
2013-01-09 18:30:00,42.5,39.8,30.43,WNW,292,0.0,0.0,90,0.00,,BKN055,0.05,VWS V14.00,2013-01-09 23:30:00,
2013-01-09 18:40:00,42.1,39.7,30.43,WNW,292,0.0,0.0,91,0.00,,BKN055,0.05,VWS V14.00,2013-01-09 23:40:00,
2013-01-09 18:50:00,41.3,38.9,30.43,NW,315,1.0,3.0,91,0.00,,BKN055,0.05,VWS V14.00,2013-01-09 23:50:00,
2013-01-09 19:00:00,40.3,38.2,30.44,NW,315,1.0,3.0,92,0.00,,BKN055,0.05,VWS V14.00,2013-01-10 00:00:00,
2013-01-09 19:10:00,39.6,37.8,30.45,NW,315,0.0,0.0,93,0.00,,BKN055,0.05,VWS V14.00,2013-01-10 00:10:00,
2013-01-09 19:20:00,39.3,37.7,30.45,NW,315,0.0,0.0,94,0.00,,BKN055,0.05,VWS V14.00,2013-01-10 00:20:00,
2013-01-09 19:30:00,39.2,37.6,30.45,NW,315,2.0,5.0,94,0.00,,BKN055,0.05,VWS V14.00,2013-01-10 00:30:00,
2013-01-09 19:40:00,39.1,37.5,30.46,NNW,338,2.0,4.0,94,0.00,,BKN055,0.05,VWS V14.00,2013-01-10 00:40:00,
2013-01-09 19:50:00,38.6,37.0,30.46,NNW,338,2.0,5.0,94,0.00,,BKN055,0.05,VWS V14.00,2013-01-10 00:50:00,
2013-01-09 20:00:00,37.8,36.2,30.47,NNW,338,2.0,3.0,94,0.00,,BKN055,0.05,VWS V14.00,2013-01-10 01:00:00,
2013-01-09 20:10:00,37.4,35.8,30.47,NNW,338,0.0,2.0,94,0.00,,BKN055,0.05,VWS V14.00,2013-01-10 01:10:00,
2013-01-09 20:20:00,37.0,35.7,30.48,NNW,338,0.0,3.0,95,0.00,,BKN055,0.05,VWS V14.00,2013-01-10 01:20:00,
2013-01-09 20:30:00,37.0,35.7,30.49,NNW,338,3.0,5.0,95,0.00,,BKN055,0.05,VWS V14.00,2013-01-10 01:30:00,
2013-01-09 20:40:00,36.4,35.1,30.49,NNW,338,1.0,3.0,95,0.00,,BKN055,0.05,VWS V14.00,2013-01-10 01:40:00,
2013-01-09 20:50:00,35.7,34.4,30.49,NNW,338,0.0,0.0,95,0.00,,BKN055,0.05,VWS V14.00,2013-01-10 01:50:00,
2013-01-09 21:00:00,35.3,34.0,30.50,NNW,338,0.0,2.0,95,0.00,,BKN055,0.05,VWS V14.00,2013-01-10 02:00:00,
2013-01-09 21:10:00,35.2,34.2,30.50,NNW,338,1.0,2.0,96,0.00,,BKN055,0.05,VWS V14.00,2013-01-10 02:10:00,
2013-01-09 21:20:00,34.6,33.3,30.50,NNW,338,1.0,3.0,95,0.00,,BKN055,0.05,VWS V14.00,2013-01-10 02:20:00,
2013-01-09 21:30:00,34.4,33.4,30.50,NNW,338,2.0,4.0,96,0.00,,BKN055,0.05,VWS V14.00,2013-01-10 02:30:00,
2013-01-09 21:40:00,34.3,33.3,30.50,NNW,338,1.0,3.0,96,0.00,,BKN055,0.05,VWS V14.00,2013-01-10 02:40:00,
2013-01-09 21:50:00,34.0,33.0,30.50,NNW,338,3.0,5.0,96,0.00,,BKN055,0.05,VWS V14.00,2013-01-10 02:50:00,
2013-01-09 22:00:00,33.5,32.5,30.50,NNW,338,2.0,4.0,96,0.00,,BKN055,0.05,VWS V14.00,2013-01-10 03:00:00,
2013-01-09 22:10:00,32.8,31.8,30.50,NNW,338,3.0,5.0,96,0.00,,BKN055,0.05,VWS V14.00,2013-01-10 03:10:00,
2013-01-09 22:20:00,32.8,31.8,30.50,NNW,338,3.0,5.0,96,0.00,,BKN055,0.05,VWS V14.00,2013-01-10 03:20:00,
2013-01-09 22:30:00,32.6,31.6,30.50,NNW,338,3.0,4.0,96,0.00,,BKN055,0.05,VWS V14.00,2013-01-10 03:30:00,
2013-01-09 22:40:00,32.5,31.5,30.50,NNW,338,1.0,3.0,96,0.00,,BKN055,0.05,VWS V14.00,2013-01-10 03:40:00,
2013-01-09 22:50:00,32.2,31.2,30.51,NNW,338,0.0,0.0,96,0.00,,BKN055,0.05,VWS V14.00,2013-01-10 03:50:00,
2013-01-09 23:00:00,31.9,31.1,30.51,NNW,338,0.0,0.0,97,0.00,,BKN055,0.05,VWS V14.00,2013-01-10 04:00:00,
2013-01-09 23:10:00,31.5,30.5,30.51,NNW,338,0.0,0.0,96,0.00,,BKN055,0.05,VWS V14.00,2013-01-10 04:10:00,
2013-01-09 23:20:00,31.2,30.2,30.51,NNW,338,1.0,2.0,96,0.00,,BKN055,0.05,VWS V14.00,2013-01-10 04:20:00,
2013-01-09 23:30:00,31.0,30.2,30.51,NNW,338,0.0,0.0,97,0.00,,BKN055,0.05,VWS V14.00,2013-01-10 04:30:00,
2013-01-09 23:40:00,31.0,30.2,30.52,NNW,338,1.0,3.0,97,0.00,,BKN055,0.05,VWS V14.00,2013-01-10 04:40:00,
2013-01-09 23:50:00,31.0,30.2,30.52,NNW,338,1.0,3.0,97,0.00,,BKN055,0.05,VWS V14.00,2013-01-10 04:50:00,